World > North America > United States > Ohio

Crosstown, Ohio Regional Weather

Lat: 39.07N, Lon: 84.04W
Wx Zone: OHZ078Web Search
Crosstown Weather Warning NWS WEATHER ALERT FOR THE CROSSTOWN, OH AREA - HARD FROST ADVISORY Issued: 530 AM EDT Wed May 12 2021 Crosstown Weather Warning  

Helpful Tip: You can add this page to Bookmarks by pressing the Ctrl key & d key at the same time. Mac users press command & d.

Feedback


°F Click to change Crosstown hourly weather to Imperial units.Click to change Crosstown hourly weather to Metric units. °C
Crosstown Weather Map
UTC Time: 5/12/2021, 10:48
Your Time:

Crosstown, OH Regional Weather

Expires:202105121100;;993019
ASUS41 KCLE 121012
RWRCLE
OHIO REGIONAL WEATHER ROUNDUP
NATIONAL WEATHER SERVICE WILMINGTON, OH
600 AM EDT WED MAY 12 2021

NOTE: "FAIR" INDICATES FEW OR NO CLOUDS BELOW 12,000 FEET WITH NO
SIGNIFICANT WEATHER AND/OR OBSTRUCTIONS TO VISIBILITY.


OHZ042-051>053-060>062-070>072-077>081-121100-
  SOUTHWEST OHIO
  
CITY           SKY/WX    TMP DP  RH WIND       PRES   REMARKS
CINC-COVINGTON FAIR      44  31  60 NE10      30.35R                  
CINC-LUNKEN    FAIR      41  35  79 CALM      30.38R                  
HAMILTON       FAIR      41  33  73 NE5       30.37R                  
DAYTON         FAIR      38  29  70 N5        30.37R                  
WRIGHT-PAT AFB FAIR      35  31  85 CALM      30.36R                  
DAYTON GENERAL FAIR      39  31  72 N7        30.35R                  
WILMINGTON     FAIR      39  31  72 N6        30.34R                  
$$


SKY/WX - Weather  TMP - Temperature  DP - Dew Point  RH - Relative Humidity
WIND - Wind Direction/Speed PRES - Barometric Pressure VSB - Visibility
WCI - Wind Chill Index E13G22 Wind - East Wind 13 mph/Gusts of 22 mph